Overview Statistics Trail Chart Weather Telemetry Raw packets
 

This is the latest recevied weather packets stored in our database for station/object OK1FET-5. If no packets are shown the sender has not sent any weather packets the latest 10 day(s).

<< 20 21 22 23 24 25 26 >>
Time Temp. Humidity Pressure Rain* Wind** Luminosity Snow
1788262583 24.44° C 45% 1022.3 hPa - - - -
1788261987 23.89° C 47% 1022.4 hPa - - - -
1788261391 24.44° C 46% 1022.3 hPa - - - -
1788260795 23.33° C 48% 1022.3 hPa - - - -
1788260199 25° C 45% 1022.3 hPa - - - -
1788259604 25.56° C 45% 1022.4 hPa - - - -
1788259008 24.44° C 46% 1022.4 hPa - - - -
1788258412 23.89° C 47% 1022.4 hPa - - - -
1788257221 22.78° C 51% 1022.2 hPa - - - -
1788256625 22.22° C 53% 1022.2 hPa - - - -
1788256029 22.78° C 50% 1022.1 hPa - - - -
1788255433 22.78° C 52% 1022.1 hPa - - - -
1788254838 22.22° C 52% 1022.2 hPa - - - -
1788254242 23.33° C 51% 1022.2 hPa - - - -
1788253646 22.78° C 53% 1022.1 hPa - - - -
1788253050 22.78° C 52% 1022 hPa - - - -
1788252454 23.33° C 50% 1021.7 hPa - - - -
1788251859 23.89° C 50% 1021.9 hPa - - - -
1788251263 23.89° C 50% 1021.7 hPa - - - -
1788250667 23.33° C 51% 1021.6 hPa - - - -
1788250071 23.33° C 51% 1021.5 hPa - - - -
1788249476 22.78° C 52% 1021.5 hPa - - - -
1788248880 22.78° C 53% 1021.5 hPa - - - -
1788248284 22.78° C 53% 1021.5 hPa - - - -
1788247688 22.78° C 54% 1021.4 hPa - - - -

* Rain since midnight (hover to see other rain measurements)
** Current wind speed in m/s (hover to see current wind gust speed)